Terminal Aerodrome Forecast
Issued by NWS

Home | Current Version | Previous Version | Text Only | Print | Product List | Glossary On
Versions: 1 2 3 4 5 6 7 8 9 10 11 12 13 14 15 16 17 18 19 20 21 22 23 24 25 26 27 28 29 30 31 32 33 34 35 36 37
000
FTUS45 KBOI 201900 AAB
TAFJER
TAF AMD
KJER 201900Z 2019/2118 VRB06KT P6SM VCSH OVC040
     FM210300 24010KT 6SM -RA OVC010
     FM211200 24011KT P6SM -SHRA OVC020=

USA.gov is the U.S. government's official web portal to all federal, state and local government web resources and services.